Date String (YYYY-MM-DD hh:mm:ss) UTC,Instrument flags,Ambient pressure (hPa),Sample flow (lpm),Bypass flow (lpm),Sample temperature (°C),Ambient temperature (°C),ASC tube jacket temperature (°C),LED temperature (°C),Box temperature (°C),Sample RH (%),Span deviation,Mass concentration (μg/m³),Mass concentration (μg/m³),Mass concentration (μg/m³)
DateTimeUTC,F1_M11,P_M11,Q1_M11,Q2_M11,T1_M11,T2_M11,T3_M11,T4_M11,T5_M11,U1_M11,ZSPAN_M11,X2_M11,X0_M11,X1_M11
2021-11-14 08:00:00,,0832.1,5.00,0.00,24.8,23.7,00.0,34.2,26.4,15.0,0000.0,0003.17,0014.50,0000.88
2021-11-14 08:01:00,,0832.1,5.00,0.00,24.7,23.7,00.0,34.1,26.3,15.1,0000.0,0003.16,0013.97,0000.89
2021-11-14 08:02:00,,0832.1,5.00,0.00,24.7,23.7,00.0,34.1,26.3,15.2,0000.0,0003.17,0013.48,0000.91
2021-11-14 08:03:00,,0832.2,5.00,0.00,24.6,23.6,00.0,34.0,26.3,15.2,0000.0,0003.19,0013.70,0000.92
2021-11-14 08:04:00,,0832.1,5.01,0.00,24.6,23.6,00.0,34.0,26.3,15.2,0000.0,0003.21,0014.32,0000.93
2021-11-14 08:05:00,,0832.1,5.00,0.00,24.6,23.6,00.0,34.0,26.2,15.2,0000.0,0003.15,0013.91,0000.96
2021-11-14 08:06:00,,0832.1,5.00,0.00,24.6,23.6,00.0,33.9,26.2,15.2,0000.0,0003.10,0014.02,0000.98
2021-11-14 08:07:00,,0832.1,5.00,0.00,24.5,23.5,00.0,33.9,26.2,15.2,0000.0,0003.09,0013.99,0001.01
2021-11-14 08:08:00,,0832.1,5.00,0.00,24.5,23.5,00.0,33.9,26.2,15.3,0000.0,0003.14,0014.58,0001.03
2021-11-14 08:09:00,,0832.1,5.00,0.00,24.5,23.5,00.0,33.8,26.1,15.3,0000.0,0003.14,0014.21,0001.05
2021-11-14 08:10:00,,0832.1,5.00,0.00,24.4,23.4,00.0,33.8,26.1,15.3,0000.0,0003.20,0014.67,0001.08
2021-11-14 08:11:00,,0832.1,4.99,0.00,24.4,23.4,00.0,33.8,26.0,15.3,0000.0,0003.25,0015.18,0001.12
2021-11-14 08:12:00,,0832.0,5.01,0.00,24.4,23.3,00.0,33.7,26.0,15.3,0000.0,0003.31,0015.23,0001.18
2021-11-14 08:13:00,,0832.1,4.99,0.00,24.3,23.3,00.0,33.7,26.0,15.3,0000.0,0003.36,0015.84,0001.21
2021-11-14 08:14:00,,0832.1,4.99,0.00,24.3,23.3,00.0,33.7,26.0,15.3,0000.0,0003.43,0016.08,0001.24
2021-11-14 08:15:00,,0832.1,5.01,0.00,24.3,23.3,00.0,33.6,25.9,15.3,0000.0,0003.48,0015.77,0001.27
2021-11-14 08:16:00,,0832.1,4.99,0.00,24.2,23.3,00.0,33.6,25.9,15.3,0000.0,0003.56,0015.99,0001.30
2021-11-14 08:17:00,,0832.1,4.99,0.00,24.2,23.3,00.0,33.6,25.9,15.3,0000.0,0003.64,0016.97,0001.31
2021-11-14 08:18:00,,0832.1,5.00,0.00,24.2,23.3,00.0,33.5,25.9,15.3,0000.0,0003.65,0016.73,0001.31
2021-11-14 08:19:00,,0832.1,4.99,0.00,24.2,23.3,00.0,33.5,25.9,15.3,0000.0,0003.65,0015.70,0001.32
2021-11-14 08:20:00,,0832.1,5.00,0.00,24.2,23.3,00.0,33.5,25.9,15.3,0000.0,0003.62,0015.32,0001.31
2021-11-14 08:21:00,,0832.1,5.01,0.00,24.2,23.3,00.0,33.5,25.9,15.3,0000.0,0003.59,0014.54,0001.31
2021-11-14 08:22:00,,0832.1,4.98,0.00,24.2,23.3,00.0,33.5,25.9,15.3,0000.0,0003.61,0013.91,0001.28
2021-11-14 08:23:00,,0832.1,5.01,0.00,24.2,23.3,00.0,33.4,25.9,15.2,0000.0,0003.56,0013.45,0001.25
2021-11-14 08:24:00,,0832.1,5.01,0.00,24.1,23.2,00.0,33.4,25.8,15.1,0000.0,0003.53,0014.21,0001.21
2021-11-14 08:25:00,,0832.1,5.00,0.00,24.1,23.2,00.0,33.4,25.7,15.2,0000.0,0003.43,0014.73,0001.17
2021-11-14 08:26:00,,0832.1,5.01,0.00,24.1,23.1,00.0,33.4,25.7,15.2,0000.0,0003.36,0014.58,0001.15
2021-11-14 08:27:00,,0832.3,4.98,0.00,24.1,23.1,00.0,33.3,25.7,15.2,0000.0,0003.30,0014.29,0001.12
2021-11-14 08:28:00,,0832.3,5.01,0.00,24.0,23.1,00.0,33.3,25.7,15.0,0000.0,0003.23,0014.32,0001.09
2021-11-14 08:29:00,,0832.4,5.00,0.00,24.0,23.1,00.0,33.3,25.7,15.1,0000.0,0003.23,0014.34,0001.08
2021-11-14 08:30:00,,0832.4,4.99,0.00,24.0,23.1,00.0,33.3,25.7,15.1,0000.0,0003.24,0014.05,0001.06
2021-11-14 08:31:00,,0832.2,5.02,0.00,24.0,23.1,00.0,33.3,25.6,15.1,0000.0,0003.23,0014.09,0001.04
2021-11-14 08:32:00,,0832.1,4.98,0.00,24.0,23.1,00.0,33.2,25.6,15.1,0000.0,0003.21,0013.87,0001.01
2021-11-14 08:33:00,,0832.2,5.01,0.00,24.0,23.1,00.0,33.2,25.6,15.1,0000.0,0003.19,0014.54,0001.00
2021-11-14 08:34:00,,0832.2,5.00,0.00,24.0,23.0,00.0,33.2,25.6,15.1,0000.0,0003.14,0014.84,0001.00
2021-11-14 08:35:00,,0832.1,5.00,0.00,24.0,23.0,00.0,33.2,25.6,15.2,0000.0,0003.15,0014.51,0000.99
2021-11-14 08:36:00,,0832.1,4.99,0.00,24.0,23.1,00.0,33.2,25.6,15.1,0000.0,0003.18,0013.96,0000.99
2021-11-14 08:37:00,,0832.1,5.00,0.00,24.0,23.1,00.0,33.2,25.7,15.1,0000.0,0003.21,0013.49,0000.99
2021-11-14 08:38:00,,0832.1,4.99,0.00,24.0,23.1,00.0,33.1,25.6,15.1,0000.0,0003.18,0013.83,0000.98
2021-11-14 08:39:00,,0832.1,5.02,0.00,24.0,23.1,00.0,33.1,25.6,15.1,0000.0,0003.14,0012.64,0000.98
2021-11-14 08:40:00,,0832.1,5.00,0.00,24.0,23.1,00.0,33.1,25.6,15.2,0000.0,0003.14,0012.39,0000.96
2021-11-14 08:41:00,,0832.1,5.01,0.00,23.9,23.1,00.0,33.1,25.6,15.2,0000.0,0003.11,0012.91,0000.96
2021-11-14 08:42:00,,0832.1,4.99,0.00,24.0,23.1,00.0,33.1,25.6,15.2,0000.0,0003.11,0013.03,0000.96
2021-11-14 08:43:00,,0832.2,5.00,0.00,23.9,23.0,00.0,33.1,25.6,15.1,0000.0,0003.14,0013.27,0000.96
2021-11-14 08:44:00,,0832.3,5.01,0.00,23.9,23.1,00.0,33.1,25.7,15.1,0000.0,0003.12,0013.85,0000.96
2021-11-14 08:45:00,,0832.3,4.99,0.00,23.9,23.1,00.0,33.1,25.7,15.2,0000.0,0003.14,0013.90,0000.95
2021-11-14 08:46:00,,0832.4,5.00,0.00,23.9,23.1,00.0,33.1,25.7,15.1,0000.0,0003.12,0013.05,0000.93
2021-11-14 08:47:00,,0832.4,5.00,0.00,23.9,23.2,00.0,33.1,25.7,15.0,0000.0,0003.14,0012.88,0000.91
2021-11-14 08:48:00,,0832.3,4.99,0.00,23.9,23.2,00.0,33.1,25.7,15.1,0000.0,0003.11,0013.37,0000.92
2021-11-14 08:49:00,,0832.3,5.01,0.00,23.9,23.2,00.0,33.0,25.7,15.1,0000.0,0003.14,0013.50,0000.91
2021-11-14 08:50:00,,0832.3,4.99,0.00,23.9,23.2,00.0,33.0,25.6,15.1,0000.0,0003.16,0013.69,0000.91
2021-11-14 08:51:00,,0832.4,5.00,0.00,23.9,23.1,00.0,33.0,25.6,15.1,0000.0,0003.12,0013.48,0000.90
2021-11-14 08:52:00,,0832.2,5.00,0.00,23.9,23.0,00.0,33.0,25.6,15.2,0000.0,0003.09,0013.27,0000.90
2021-11-14 08:53:00,,0832.2,4.99,0.00,23.8,22.9,00.0,33.0,25.5,15.1,0000.0,0003.00,0012.47,0000.87
2021-11-14 08:54:00,,0832.2,5.01,0.00,23.8,22.8,00.0,33.0,25.5,15.2,0000.0,0003.00,0012.19,0000.87
2021-11-14 08:55:00,,0832.1,5.00,0.00,23.8,22.8,00.0,33.0,25.5,15.3,0000.0,0002.92,0011.72,0000.86
2021-11-14 08:56:00,,0832.1,5.00,0.00,23.8,22.8,00.0,33.0,25.5,15.3,0000.0,0002.89,0011.58,0000.87
2021-11-14 08:57:00,,0832.1,5.01,0.00,23.8,22.8,00.0,32.9,25.4,15.3,0000.0,0002.90,0011.82,0000.88
2021-11-14 08:58:00,,0832.0,4.99,0.00,23.7,22.8,00.0,32.9,25.4,15.3,0000.0,0002.83,0011.88,0000.88
2021-11-14 08:59:00,,0832.1,5.00,0.00,23.7,22.7,00.0,32.9,25.4,15.3,0000.0,0002.80,0012.45,0000.89
